sat.trackr.live / text

‹ back to catalog

STARLINK-35824

NORAD 66370 · 2025-254Y

PAYLOAD ACTIVE UNKNOWN

§ Identity

Operator
Country
US
Launch date
2025-11-06
Launch site
AFWTR
Launch vehicle
Mass (kg)
RCS (m²)

Purposes: comms

External: N2YO · Heavens-Above · Gunter

§ Orbital elements

Epoch: 2026-05-24T22:56:11.616000Z

Period
94.11 min
Inclination
53.1562°
Eccentricity
0.0000546
Mean motion
15.30202268 rev/d
Perigee alt
474.8 km
Apogee alt
475.6 km
Semi-major
6,853.3 km
B*
5.0571e-4
RAAN
235.9398°
Arg perigee
67.7864°
Mean anomaly
292.3195°
Rev number
3,068

§ Raw data

STARLINK-358241 66370U 25254Y   26144.95569000  .00014649  00000+0  50571-3 0  99952 66370  53.1562 235.9398 0000546  67.7864 292.3195 15.30202268 30685

JSON: /api/v1/satellites/66370 · /tle

For live sub-satellite position, see the globe view (requires WebGL).

§ Visibility from observer

Set your observer location to see the next 7 days of passes ≥ 10°. The values pass through the URL so the page stays shareable.

No JS? Fill the form by hand. The geolocation button needs JavaScript.